Location: Lane
(33.5226°N, 79.8788°W)
Time: 20:01:07
(UTC+00:00)

Transit 2A - Pass Details

Date: 04 October 2022
Orbit: 598 x 959 km, 66.7° (Epoch: 03 December)

Event Time Altitude Azimuth Distance (km) Brightness Sun altitude
Rises 12:04:35 0° 350° (N) 2,990 8.8 9.2°
Reaches altitude 10° 12:07:19 10° 6° (N) 2,130 8.3 9.7°
Maximum altitude 12:11:01 22° 56° (ENE) 1,568 8.4 10.5°
Drops below altitude 10° 12:14:59 10° 106° (ESE) 2,297 12.2 11.3°
Sets 12:18:01 0° 121° (ESE) 3,295 10.9 11.9°
